Simultaneous Nadir Overpasses (SNOs) Predictions

Prediction of SNOs between GOES-16 and TERRA Satellite Orbit:

Table of predicted SNOs for the next 14.0 days since TLE Epoch: 4/8/2023
Index Date Time (GOES-16) GOES-16 Lat,Lon TERRA Lat,Lon Distance(km) Time Diff (sec)
1 04/09/2023 03:10:53 -0.06, -75.20 -0.05, -75.28 9.40 80
2 04/11/2023 02:52:04 -0.06, -75.20 0.74, -71.38 434.30 80
3 04/11/2023 15:12:19 0.06, -75.21 0.28, -76.30 123.84 80
4 04/13/2023 14:58:50 0.05, -75.21 -0.54, -72.40 319.76 80
5 04/14/2023 03:19:12 -0.05, -75.21 -0.52, -77.35 243.62 80
6 04/16/2023 03:00:23 -0.05, -75.22 0.33, -73.45 201.17 80
7 04/16/2023 15:20:37 0.05, -75.23 0.68, -78.37 356.56 80
8 04/18/2023 15:07:07 0.05, -75.25 -0.14, -74.47 89.75 80
9 04/19/2023 03:27:29 -0.04, -75.25 -0.91, -79.42 472.79 80
10 04/21/2023 03:11:19 -0.04, -75.28 -0.06, -75.51 25.83 80
